Date,TemperatureHighF,TemperatureAvgF,TemperatureLowF,DewpointHighF,DewpointAvgF,DewpointLowF,HumidityHigh,HumidityAvg,HumidityLow,PressureMaxIn,PressureMinIn,WindSpeedMaxMPH,WindSpeedAvgMPH,GustSpeedMaxMPH,PrecipitationSumIn
2013-1-1,48.7,44.3,39.4,39.2,31.3,21.2,87,61,39,29.74,29.56,5,1,5,0.25
2013-1-2,46.8,38.8,34.5,41.0,32.9,28.4,95,79,53,29.85,29.65,6,1,6,0.16
2013-1-3,42.3,34.3,27.5,30.2,20.5,15.8,87,58,40,29.91,29.83,6,1,6,0.00
2013-1-4,47.5,36.3,26.1,23.0,17.9,12.2,84,50,33,29.91,29.83,9,2,9,0.00
2013-1-5,52.0,39.4,28.6,23.0,17.3,12.2,53,42,29,30.06,29.88,7,1,7,0.00
2013-1-6,54.7,43.3,36.3,33.8,26.8,21.2,78,53,36,29.88,29.71,7,1,7,0.00
2013-1-7,52.7,40.2,27.5,28.4,22.4,17.6,74,50,36,30.09,29.83,12,1,12,0.00
2013-1-8,51.4,38.3,26.8,33.8,27.0,19.4,89,66,42,30.12,30.03,6,0,6,0.00
2013-1-9,71.4,52.2,34.9,48.2,39.6,28.4,85,64,37,30.06,29.94,11,1,11,0.00
2013-1-10,63.5,49.4,35.8,48.2,33.8,23.0,95,59,29,30.21,30.03,10,1,10,0.00
2013-1-11,46.4,41.2,33.1,46.4,36.5,23.0,98,82,59,30.15,29.80,5,0,5,0.13
2013-1-12,58.3,53.9,46.4,55.4,53.0,46.4,98,94,79,29.83,29.77,8,1,8,0.00
2013-1-13,73.4,61.4,54.7,62.6,56.5,55.4,98,85,53,29.80,29.71,6,1,6,0.00
2013-1-14,63.1,56.6,43.0,62.6,54.8,42.8,98,93,83,29.91,29.71,11,2,11,1.28
2013-1-15,43.0,40.7,38.8,42.8,40.8,39.2,98,98,96,29.97,29.77,10,2,10,1.33
2013-1-16,45.5,41.1,36.7,46.4,41.0,37.4,98,98,95,29.80,29.59,8,1,8,0.50
2013-1-17,46.9,43.3,32.7,48.2,43.4,33.8,98,97,89,29.77,29.65,12,2,12,0.99
2013-1-18,60.8,49.5,39.7,48.2,30.4,19.4,98,49,35,30.15,30.03,8,1,8,0.42
2013-1-19,53.4,42.3,28.2,24.8,21.8,17.6,69,45,31,30.09,29.77,8,2,8,0.25
2013-1-20,60.4,45.9,35.8,28.4,22.4,17.6,54,40,26,29.77,29.59,15,2,15,0.04
2013-1-21,56.7,41.7,25.2,32.0,19.1,6.8,81,44,26,29.77,29.47,11,2,11,0.00
2013-1-22,35.8,28.3,20.3,8.6,-0.9,-7.6,33,29,22,29.94,29.59,13,2,13,0.00
2013-1-23,36.3,26.4,11.1,32.0,4.4,-7.6,60,33,24,30.00,29.74,11,1,11,0.00
2013-1-24,31.6,25.3,13.3,32.0,4.4,-7.6,69,42,30,30.18,29.68,16,3,16,0.00
2013-1-25,44.2,25.9,10.9,32.0,18.8,-2.2,76,48,31,30.18,29.74,7,1,7,0.00
2013-1-26,41.0,28.5,18.3,26.6,15.4,8.6,80,61,40,30.09,29.74,4,0,4,0.04
2013-1-27,44.1,31.2,20.1,24.8,16.2,12.2,82,57,33,30.27,30.09,6,1,6,0.00
2013-1-28,57.4,42.4,29.7,41.0,30.4,14.0,93,64,38,30.15,29.80,10,2,10,0.08
2013-1-29,76.5,59.2,44.2,50.0,42.3,37.4,87,57,28,29.83,29.71,8,1,8,0.00
2013-1-30,70.9,66.1,58.8,59.0,54.9,48.2,84,67,54,29.71,29.09,18,4,18,0.00
2013-1-31,51.8,42.9,29.1,33.8,15.8,8.6,50,33,27,29.65,29.12,20,4,20,0.54
2013-2-1,38.7,31.2,20.1,19.4,4.9,-4.0,50,34,24,30.03,29.50,22,3,22,0.00
2013-2-2,41.4,28.5,15.6,12.2,5.6,-4.0,54,38,28,30.06,29.68,11,1,11,0.00
2013-2-3,47.8,36.7,28.2,26.6,14.8,8.6,56,41,29,29.68,29.50,14,2,14,0.00
2013-2-4,32.4,29.7,27.1,10.4,7.8,5.0,42,41,40,29.68,29.65,8,1,8,0.00
2013-2-5,44.4,42.0,41.0,21.2,20.7,19.4,43,42,41,29.62,29.59,4,2,4,0.00
2013-2-7,39.6,39.5,39.4,30.2,30.2,30.2,70,68,66,29.85,29.85,4,1,4,0.04
2013-2-11,60.1,58.2,52.7,55.4,52.8,51.8,98,81,75,29.68,29.53,13,5,13,0.09
2013-2-12,58.3,53.0,45.1,26.6,23.5,21.2,39,32,26,29.71,29.65,8,3,8,0.00
2013-2-24,49.5,41.5,34.3,19.4,16.5,14.0,44,36,29,29.77,29.62,12,2,12,0.45
2013-2-25,46.9,35.1,26.1,19.4,14.1,8.6,60,43,31,29.91,29.77,9,1,9,0.00
2013-2-26,52.3,39.5,25.5,51.8,33.8,12.2,98,81,59,29.88,29.26,22,2,22,0.46
2013-2-27,63.5,48.5,37.2,44.6,34.2,23.0,98,63,28,29.41,29.26,11,2,11,0.00
2013-2-28,55.2,42.8,34.2,33.8,23.4,15.8,79,48,28,29.47,29.35,13,2,13,0.00
2013-3-1,46.6,39.3,33.1,24.8,20.9,17.6,56,47,38,29.59,29.47,6,1,6,0.00
2013-3-2,42.1,37.0,33.6,19.4,17.2,14.0,53,43,37,29.59,29.50,9,1,9,0.00
2013-3-3,49.5,38.5,25.9,17.6,12.6,5.0,51,35,27,29.62,29.50,13,2,13,0.00
2013-3-4,51.6,42.7,33.1,17.6,10.9,6.8,31,27,21,29.74,29.65,15,2,15,0.00
2013-3-5,52.2,39.4,28.0,37.4,20.6,3.2,94,50,28,29.77,29.35,12,2,12,0.45
2013-3-6,37.6,35.1,32.7,35.6,32.6,26.6,98,89,69,29.68,29.18,19,5,19,0.58
2013-3-7,49.8,40.0,31.3,26.6,21.4,14.0,75,48,33,29.85,29.68,17,3,17,0.25
2013-3-8,53.1,40.6,28.8,21.2,18.8,14.0,64,43,29,29.94,29.83,17,3,17,0.00
2013-3-9,65.3,45.6,29.5,26.6,20.0,14.0,64,39,20,30.00,29.91,11,2,11,0.00
2013-3-10,71.4,49.4,26.8,30.2,20.1,14.0,70,36,17,30.00,29.88,10,2,10,0.00
2013-3-11,70.2,55.1,40.3,42.8,37.4,21.2,88,54,34,29.91,29.62,10,2,10,0.00
2013-3-12,73.2,59.6,45.3,60.8,44.6,23.0,98,62,28,29.65,29.44,12,3,12,0.37
2013-3-13,45.3,40.7,37.4,24.8,23.2,21.2,58,50,40,29.65,29.65,2,0,2,0.00
2013-4-29,67.8,61.5,54.3,60.8,55.9,51.8,98,82,63,29.74,29.68,3,0,3,4.93
2013-4-30,70.2,60.2,55.2,55.4,53.5,48.2,96,79,48,29.91,29.74,8,1,8,0.00
2013-5-1,74.5,61.1,54.1,55.4,46.5,35.6,96,63,32,30.03,29.88,10,2,10,0.00
2013-5-2,75.0,59.1,49.3,51.8,43.1,35.6,87,58,32,30.06,29.94,6,1,11,0.00
2013-5-3,75.6,56.0,42.4,51.8,40.6,30.2,93,60,26,29.97,29.91,14,1,14,0.00
2013-5-4,63.1,52.1,43.3,44.6,40.5,35.6,85,65,47,29.94,29.80,9,1,9,0.00
2013-5-5,66.4,53.8,40.6,48.2,41.8,33.8,83,64,43,29.85,29.77,12,2,12,0.00
2013-5-6,70.7,59.1,54.0,60.8,55.9,48.2,98,88,59,29.77,29.59,11,2,11,0.75
2013-5-7,80.4,64.3,55.4,66.2,54.9,42.8,98,75,31,29.62,29.53,8,1,8,0.08
2013-5-8,66.6,57.2,50.2,57.2,52.6,48.2,95,85,55,29.68,29.59,5,0,5,0.09
2013-5-10,86.4,76.2,69.1,55.4,53.2,50.0,60,45,30,29.62,29.59,7,0,7,0.20
2013-5-11,88.3,71.6,61.5,60.8,57.5,51.8,89,63,31,29.62,29.44,11,0,11,0.04
2013-5-12,79.7,64.2,48.0,59.0,43.6,26.6,94,54,22,29.74,29.44,8,1,8,0.04
2013-5-13,73.4,54.0,37.9,37.4,29.3,24.8,74,42,21,29.85,29.74,8,1,8,0.00
2013-5-14,79.7,59.3,37.6,37.4,32.1,26.6,72,39,20,29.91,29.74,8,1,8,0.00
2013-5-15,94.5,72.9,52.9,53.6,46.7,33.8,56,40,25,29.74,29.50,10,1,10,0.00
2013-5-16,87.6,73.1,66.4,57.2,53.0,48.2,67,50,28,29.65,29.53,6,0,6,0.00
2013-5-17,96.8,76.0,61.2,57.2,51.9,42.8,84,48,18,29.80,29.62,8,1,8,0.17
2013-5-18,68.4,63.9,59.0,64.4,60.6,55.4,94,88,81,29.85,29.80,5,0,6,0.21
2013-5-19,79.7,68.2,63.7,66.2,63.1,57.2,97,85,53,29.85,29.77,8,0,8,0.49
2013-5-20,89.6,71.9,64.0,71.6,64.8,57.2,98,81,40,29.80,29.71,8,0,8,0.17
2013-5-21,86.9,72.9,65.7,69.8,66.1,60.8,97,81,45,29.71,29.59,6,0,6,0.04
2013-5-22,92.5,77.0,68.4,68.0,64.7,60.8,95,69,38,29.68,29.56,9,1,9,0.08
2013-5-23,92.3,74.2,64.2,68.0,64.0,57.2,96,73,36,29.65,29.47,8,0,8,0.05
2013-5-24,74.1,61.9,48.7,62.6,47.5,30.2,96,64,31,29.83,29.47,13,1,13,0.04
2013-5-25,72.7,55.3,38.7,37.4,33.4,28.4,78,46,26,29.91,29.80,8,1,8,0.00
2013-5-26,85.5,62.8,42.8,42.8,36.6,32.0,76,43,19,29.94,29.83,9,1,9,0.00
2013-5-27,87.4,65.2,46.8,53.6,46.7,39.2,84,55,23,29.94,29.83,8,0,8,0.00
2013-5-28,93.0,73.4,56.3,60.8,55.7,50.0,83,57,31,29.88,29.77,9,1,9,0.00
2013-5-29,98.8,78.5,65.3,62.6,58.0,53.6,81,53,26,29.85,29.80,8,1,8,0.00
2013-5-30,99.0,78.5,64.0,64.4,59.1,55.4,86,55,27,29.91,29.83,8,1,8,0.00
2013-5-31,99.5,78.5,64.0,68.0,58.6,51.8,90,55,26,29.88,29.77,8,0,8,0.00
2013-6-1,100.6,80.2,66.2,69.8,59.3,53.6,90,53,25,29.80,29.68,8,1,8,0.00
2013-6-2,94.8,78.5,68.7,64.4,60.2,55.4,77,55,30,29.68,29.59,10,1,10,0.21
2013-6-3,90.0,75.9,68.9,71.6,65.8,59.0,96,72,43,29.65,29.50,6,0,6,0.62
2013-6-4,90.3,71.2,58.5,62.6,49.9,39.2,91,53,19,29.80,29.65,8,1,8,0.00
2013-6-5,93.7,72.2,54.7,60.8,50.6,46.4,88,51,22,29.85,29.74,7,0,7,0.00
2013-6-6,79.2,69.1,59.9,69.8,57.4,44.6,96,67,46,29.77,29.53,12,1,12,0.04
2013-6-7,73.4,69.3,66.9,73.4,69.0,66.2,98,97,94,29.53,29.26,8,1,8,1.95
2013-6-8,90.1,72.5,65.5,75.2,63.2,53.6,98,76,33,29.77,29.47,4,0,6,0.79
2013-6-9,96.8,76.6,61.7,68.0,63.1,59.0,94,67,32,29.85,29.74,6,0,6,0.00
2013-6-10,87.1,74.3,69.4,73.4,68.2,64.4,95,82,50,29.77,29.53,10,1,10,0.16
2013-6-11,92.5,76.7,68.7,71.6,62.4,55.4,96,66,31,29.59,29.53,7,1,7,0.00
2013-6-12,101.5,81.1,65.5,69.8,63.2,57.2,84,59,26,29.62,29.53,6,0,6,0.00
2013-6-13,99.3,83.6,66.7,69.8,66.8,59.0,95,61,29,29.53,29.26,10,1,10,0.21
2013-6-14,86.7,73.9,62.4,64.4,50.6,44.6,93,46,29,29.68,29.38,9,1,9,0.00
2013-6-15,95.0,74.3,57.9,60.8,53.2,48.2,86,52,24,29.80,29.68,6,0,6,0.00
2013-6-16,97.3,78.2,64.6,64.4,60.1,55.4,81,57,28,29.74,29.65,7,1,7,0.00
2013-6-17,90.9,74.7,68.0,71.6,66.0,60.8,94,76,41,29.71,29.59,6,0,6,0.08
2013-6-18,80.8,70.8,64.8,73.4,67.8,62.6,96,89,66,29.65,29.47,7,0,7,0.54
2013-6-19,79.7,70.1,63.3,68.0,61.4,55.4,98,76,48,29.83,29.56,6,0,6,0.00
2013-6-20,91.2,73.3,62.2,66.2,55.0,42.8,95,58,28,29.94,29.83,7,0,7,0.00
2013-6-21,94.6,73.1,54.5,60.8,51.9,42.8,84,52,19,29.97,29.88,8,1,8,0.00
2013-6-22,95.4,72.8,63.3,64.4,61.3,59.0,89,71,36,29.94,29.88,5,0,5,0.00
2013-6-25,102.9,86.2,74.8,69.8,64.0,60.8,80,50,28,29.74,29.65,4,0,4,0.33
2013-6-26,103.1,80.8,68.2,71.6,66.8,59.0,95,68,28,29.68,29.53,6,1,7,0.46
2013-6-27,91.8,75.8,66.7,75.2,67.1,60.8,97,77,40,29.59,29.38,9,1,9,0.00
2013-6-28,101.1,80.6,70.5,73.4,65.9,59.0,94,65,30,29.41,29.26,11,1,11,0.00
2013-6-29,100.4,81.7,67.8,71.6,63.8,55.4,93,61,26,29.35,29.26,8,1,8,0.00
2013-6-30,73.0,71.1,69.8,69.8,69.2,68.0,97,92,87,29.56,29.53,6,0,6,1.04
2013-7-1,87.3,73.4,69.6,77.0,70.7,64.4,98,91,52,29.68,29.53,6,0,6,0.87
2013-7-2,75.7,72.3,71.8,73.4,71.4,69.8,96,95,91,29.80,29.68,5,1,5,0.00
2013-7-3,92.8,79.6,72.3,77.0,70.8,66.2,94,75,46,29.94,29.88,7,0,7,0.50
2013-7-4,98.6,80.9,71.8,77.0,67.4,59.0,97,68,31,29.97,29.85,9,1,9,0.00
2013-7-5,100.0,80.9,69.8,73.4,67.1,60.8,94,66,31,29.97,29.85,7,1,7,0.00
2013-7-6,99.3,81.5,71.8,77.0,67.0,57.2,94,66,29,29.91,29.80,6,0,6,0.00
2013-7-7,97.5,81.3,70.9,71.6,67.4,62.6,90,65,35,29.85,29.74,7,1,7,0.00
2013-7-8,94.6,78.4,70.7,73.4,67.5,59.0,95,72,37,29.83,29.77,5,0,5,0.08
2013-7-9,92.1,79.4,72.3,73.4,70.0,66.2,93,74,46,29.83,29.74,7,0,7,0.00
2013-7-10,99.3,82.5,71.8,73.4,69.3,64.4,91,67,36,29.77,29.62,7,1,7,0.00
2013-7-11,86.2,77.1,70.3,75.2,70.7,68.0,96,81,55,29.65,29.59,4,0,4,1.66
2013-7-12,76.1,70.5,66.7,69.8,67.3,64.4,98,89,72,29.74,29.56,6,0,6,0.79
2013-7-13,84.2,74.5,67.8,73.4,68.7,64.4,97,82,58,29.91,29.74,7,0,7,0.12
2013-7-14,101.7,80.9,68.5,78.8,67.7,57.2,97,70,27,30.00,29.91,5,0,5,0.00
2013-7-15,102.6,82.4,70.0,73.4,67.4,59.0,94,65,29,30.00,29.91,5,0,5,0.00
2013-7-16,107.4,85.2,71.4,75.2,68.2,60.8,89,62,25,29.94,29.85,4,0,4,0.00
2013-7-17,105.6,84.0,71.6,75.2,68.6,60.8,93,64,26,29.91,29.80,4,0,4,0.00
2013-7-18,108.7,85.5,72.1,77.0,68.5,59.0,93,62,24,29.83,29.74,3,0,3,0.00
2013-7-19,101.7,85.7,74.1,77.0,70.5,64.4,93,65,35,29.77,29.62,7,1,7,0.00
2013-7-20,100.0,86.8,75.2,71.6,68.4,66.2,74,55,37,29.65,29.56,6,1,6,0.00
2013-7-21,100.2,79.8,70.5,73.4,69.3,60.8,97,74,35,29.65,29.56,6,0,6,1.96
2013-7-22,95.7,78.7,69.8,77.0,70.0,64.4,98,77,39,29.65,29.50,5,0,5,0.00
2013-7-23,99.5,80.7,71.8,73.4,67.4,59.0,94,67,30,29.53,29.38,6,0,6,0.00
2013-7-24,99.7,80.2,70.0,69.8,65.2,59.0,88,63,30,29.59,29.41,7,0,7,0.00
2013-7-25,90.5,73.8,65.1,60.8,56.5,50.0,82,57,30,29.74,29.56,8,0,8,0.00
2013-7-26,94.8,73.0,59.4,60.8,56.7,51.8,87,63,27,29.80,29.71,5,0,5,0.00
2013-7-27,90.0,79.6,72.3,68.0,64.4,59.0,84,62,40,29.71,29.62,9,0,9,0.00
2013-7-28,97.2,77.9,69.1,69.8,65.7,59.0,93,69,31,29.68,29.59,8,0,8,0.04
2013-7-29,95.4,76.0,66.9,68.0,61.0,51.8,94,65,27,29.85,29.68,6,0,6,0.08
2013-7-30,94.8,74.5,61.3,68.0,60.3,53.6,93,66,30,29.91,29.83,8,0,8,0.00
2013-7-31,86.7,71.3,63.9,69.8,64.9,60.8,95,81,46,29.83,29.71,6,0,6,0.67
2013-8-1,85.5,73.5,68.2,75.2,69.6,66.2,97,88,52,29.71,29.53,5,0,6,0.37
2013-8-2,99.5,82.7,68.4,77.0,60.2,53.6,97,50,27,29.71,29.65,7,0,7,0.54
2013-8-3,92.7,76.9,67.3,69.8,64.0,57.2,92,67,33,29.68,29.62,4,0,4,0.00
2013-8-4,93.9,76.4,65.1,68.0,58.8,46.4,91,60,24,29.74,29.59,8,1,8,0.00
2013-8-5,91.6,72.2,59.9,60.8,55.9,50.0,88,61,27,29.80,29.71,6,0,6,0.00
2013-8-6,83.7,72.1,66.7,66.2,63.5,59.0,90,74,48,29.77,29.68,6,0,6,0.08
2013-8-7,93.9,77.9,69.6,69.8,65.8,59.0,94,69,36,29.77,29.71,8,1,8,0.00
2013-8-8,94.1,79.4,71.6,71.6,67.6,60.8,92,69,38,29.77,29.68,6,0,6,0.00
2013-8-9,99.3,82.5,72.9,73.4,69.8,64.4,91,68,35,29.71,29.62,8,1,8,0.00
2013-8-10,100.9,81.0,72.9,73.4,68.2,57.2,88,67,32,29.80,29.68,6,0,6,0.00
2013-8-11,89.6,76.2,70.7,73.4,70.4,66.2,95,82,50,29.80,29.71,4,0,4,0.04
2013-8-12,100.9,81.3,70.7,75.2,67.8,57.2,96,69,29,29.74,29.62,6,0,6,0.00
2013-8-13,91.9,77.5,71.2,73.4,69.4,64.4,94,77,44,29.62,29.47,6,0,6,0.00
2013-8-14,79.9,69.6,59.4,69.8,52.6,42.8,90,57,31,29.80,29.50,8,1,8,0.00
2013-8-15,88.7,66.5,54.7,57.2,52.9,46.4,89,65,28,29.85,29.77,6,0,6,0.00
2013-8-16,82.8,66.2,55.6,64.4,55.3,50.0,94,71,33,29.88,29.80,5,0,5,0.00
2013-8-17,84.9,68.2,58.5,62.6,57.8,53.6,91,71,41,29.91,29.85,8,0,8,0.04
2013-8-18,69.3,66.4,64.0,66.2,64.0,62.6,95,92,83,29.91,29.83,4,0,4,0.42
2013-8-19,73.6,65.3,63.1,68.0,63.8,62.6,97,94,78,29.88,29.80,3,0,4,0.17
2013-8-20,91.8,83.2,65.1,66.2,64.3,62.6,96,55,41,29.85,29.80,3,0,3,0.00
2013-8-22,97.5,95.2,82.9,69.8,60.7,59.0,62,34,29,29.77,29.74,3,0,4,0.00
2013-8-26,75.7,68.7,65.5,57.2,55.4,53.6,69,63,45,29.80,29.77,0,0,1,0.16
2013-8-27,98.4,77.6,64.0,69.8,62.0,55.4,83,61,29,29.77,29.62,4,0,4,0.00
2013-8-28,79.3,74.2,71.2,71.6,69.0,66.2,95,83,67,29.68,29.53,5,0,5,0.13
2013-8-29,87.8,74.9,69.8,73.4,69.4,62.6,97,83,46,29.71,29.50,6,0,6,0.00
2013-8-30,96.3,75.8,64.6,71.6,63.0,55.4,97,69,28,29.77,29.62,6,0,6,0.00
2013-8-31,94.3,76.8,66.7,68.0,65.5,62.6,92,71,38,29.65,29.53,7,0,7,0.04
2013-9-1,98.2,78.2,67.8,75.2,67.5,62.6,96,74,34,29.59,29.47,11,0,11,0.66
2013-9-2,98.1,79.3,70.9,75.2,67.6,59.0,96,71,33,29.56,29.47,6,0,6,0.00
2013-9-3,73.4,72.8,71.2,69.8,68.5,68.0,90,86,84,29.50,29.47,1,0,1,0.00
2013-9-6,74.5,66.6,60.3,53.6,52.4,48.2,78,61,42,29.83,29.80,0,0,0,0.00
2013-9-7,84.6,67.7,55.4,60.8,55.5,51.8,91,67,35,29.83,29.65,1,0,1,0.00
2013-9-8,64.8,62.3,60.6,62.6,59.7,59.0,93,91,86,29.65,29.62,0,0,0,0.00
2013-9-13,70.0,64.7,60.6,51.8,48.4,46.4,61,55,46,29.62,29.50,3,0,3,0.00
2013-9-14,76.3,62.5,51.8,48.2,42.9,37.4,74,50,29,29.85,29.62,7,1,7,0.00
2013-9-15,81.7,63.1,46.9,55.4,47.1,42.8,89,60,30,29.94,29.80,9,0,9,0.00
2013-9-16,89.8,67.3,58.1,64.4,55.4,51.8,91,67,33,29.91,29.77,7,1,7,0.00
2013-9-17,74.7,62.2,52.5,55.4,48.7,42.8,93,65,39,30.06,29.88,9,1,9,0.00
2013-9-20,84.2,71.0,59.2,60.8,57.2,53.6,88,64,38,29.77,29.65,5,0,5,0.00
2013-9-21,72.9,66.4,61.2,66.2,61.8,59.0,96,86,69,29.68,29.41,8,1,8,0.75
2013-9-22,66.0,63.0,60.1,66.2,62.5,59.0,98,97,96,29.50,29.44,3,0,3,0.00
2013-10-2,69.1,64.9,62.1,57.2,54.9,51.8,80,70,53,29.77,29.74,0,0,0,0.00
2013-10-3,86.0,60.1,57.0,62.6,55.1,53.6,90,83,33,29.80,29.74,3,0,3,0.00
2013-10-4,84.4,73.5,66.4,60.8,57.3,53.6,80,59,33,29.77,29.71,2,0,3,0.00
2013-10-5,90.9,74.7,61.3,64.4,58.8,53.6,91,61,31,29.77,29.68,4,0,4,0.00
2013-10-6,72.0,66.4,64.2,66.2,61.1,59.0,90,82,76,29.74,29.71,3,0,3,0.00
2013-10-20,45.0,44.2,43.0,37.4,37.4,37.4,79,77,74,29.80,29.77,0,0,0,2.94
2013-10-21,69.1,50.8,36.1,50.0,37.3,33.8,93,64,33,29.83,29.65,4,1,4,0.00
2013-10-22,72.7,58.5,49.3,53.6,45.1,41.0,85,63,32,29.65,29.47,3,0,3,0.00
2013-10-23,62.6,52.6,41.4,48.2,39.0,30.2,86,59,44,29.62,29.38,7,1,7,0.04
2013-10-24,58.3,45.1,35.1,37.4,28.5,23.0,80,54,35,29.83,29.62,1,1,6,0.00
2013-10-25,45.9,35.5,32.2,35.6,26.0,23.0,77,67,58,29.94,29.83,1,1,6,0.00
2013-12-1,55.4,40.5,31.1,23.0,18.4,15.8,60,42,28,29.77,29.71,4,0,4,0.00
2013-12-2,61.5,43.3,26.1,33.8,24.9,15.8,78,51,31,29.71,29.53,6,1,6,0.00
2013-12-3,38.1,36.0,33.8,28.4,27.1,26.6,77,69,63,29.59,29.56,3,0,3,0.00
2013-12-5,63.7,63.0,62.4,62.6,61.5,60.8,95,94,93,29.71,29.68,6,2,6,0.25
2013-12-6,76.3,62.9,43.3,62.6,56.3,39.2,95,79,47,29.80,29.62,13,3,13,0.00
2013-12-7,47.3,40.3,33.6,42.8,31.4,23.0,96,71,47,30.15,29.74,15,3,15,0.37
2013-12-8,34.7,32.3,30.7,30.2,25.1,15.8,93,77,47,30.21,29.94,11,1,11,0.17
2013-12-9,40.8,36.3,0.0,41.0,35.7,26.6,98,96,92,29.94,29.74,4,0,4,0.12
2013-12-10,41.5,36.7,28.9,39.2,34.9,15.8,98,92,59,29.94,29.65,7,1,7,0.21
2013-12-11,30.0,28.3,25.5,15.8,15.5,14.0,70,61,57,30.00,29.94,4,2,4,0.00
2013-12-14,42.1,38.1,35.4,37.4,30.1,21.2,98,74,48,29.94,29.44,7,2,7,0.83
2013-12-15,55.9,41.4,31.8,44.6,29.5,15.8,98,66,36,29.71,29.35,10,2,10,0.00
2013-12-16,48.6,38.5,31.3,24.8,20.7,15.8,67,50,38,29.83,29.68,7,2,7,0.00
2013-12-17,56.3,42.4,28.9,39.2,28.7,23.0,87,60,36,29.80,29.59,11,1,11,0.42
2013-12-18,45.5,37.8,28.8,35.6,22.4,12.2,85,57,33,29.91,29.65,9,2,9,0.00
2013-12-19,55.4,35.7,28.9,23.0,16.2,12.2,54,45,28,29.91,29.88,8,2,8,0.00
2013-12-21,66.7,62.8,0.0,60.8,54.9,0.0,84,72,62,29.71,29.68,8,2,8,0.00
2013-12-22,74.8,67.8,61.0,64.4,60.1,57.2,94,77,59,29.74,29.62,12,3,12,0.91
2013-12-23,66.6,57.5,43.5,64.4,53.8,28.4,98,87,55,29.85,29.65,13,2,13,0.38
2013-12-24,45.5,37.0,25.9,28.4,17.5,3.2,75,46,34,30.12,29.85,13,3,13,0.00
2013-12-25,36.5,26.2,17.1,10.4,5.6,1.4,57,42,32,30.24,30.06,8,1,8,0.00
2013-12-26,28.6,20.7,17.1,15.8,10.4,6.8,75,67,53,30.06,29.97,4,1,4,0.00
2013-12-30,53.6,44.6,0.0,30.2,28.1,0.0,62,51,39,29.83,29.71,8,1,8,1.53
2013-12-31,51.3,39.5,29.5,33.8,20.6,10.4,86,48,29,30.00,29.80,11,2,11,0.00
2014-1-1,50.4,36.7,24.4,23.0,14.8,10.4,64,42,30,30.06,29.80,10,1,10,0.00
2014-1-2,50.9,36.6,27.0,33.8,25.9,14.0,93,66,42,29.80,29.26,8,1,8,0.37